Surface/Precipitation History
02/08/2018 18:25  to  2/9/2018 18:25
Change End Date:
Date/Time
(MDT)
Sf
Temp Chem Water Layer Surface Precipitation
Sfc Pvt Sub Frz Factor Pct Dpth DpthThk IcePct Cond Salin FI Type Intens Accum Rate
02/09/2018 18:19 Ice Warning 3.4F - 26F 32F 5 0% - - 100% 0 mhos 7 - None None - -
02/09/2018 18:18 Ice Warning 3.6F - 26F 32F 5 0% - - 100% 0 mhos 7 - None None - -
02/09/2018 18:08 Ice Warning 3.9F - 26F 32F 5 0% - - 100% 0 mhos 9 - None None - -
02/09/2018 18:04 Ice Warning 3.9F - 26F 32F 5 0% - - 100% 0 mhos 9 - None None - -
02/09/2018 17:57 Ice Warning 3.9F - 26F 32F 5 0% - - 100% 0 mhos 9 - None None - -
02/09/2018 17:49 Ice Warning 4.3F - 26F 32F 5 0% - - 100% 0 mhos 10 - None None - -
02/09/2018 17:47 Ice Warning 4.3F - 26F 32F 5 0% - - 100% 0 mhos 10 - None None - -
02/09/2018 17:37 Ice Warning 4.6F - 26F 32F 5 0% - - 100% 0 mhos 10 - None None - -
02/09/2018 17:34 Ice Warning 4.6F - 26F 32F 5 0% - - 100% 0 mhos 10 - None None - -
02/09/2018 17:27 Ice Warning 5.2F - 26F 32F 5 0% - - 100% 0 mhos 12 - None None - -
02/09/2018 17:19 Ice Warning 5.7F - 26F 32F 5 0% - - 100% 0 mhos 13 - None None - -
02/09/2018 17:17 Ice Warning 5.7F - 26F 32F 5 0% - - 100% 0 mhos 13 - None None - -
02/09/2018 17:07 Ice Warning 6.4F - 26F 32F 5 0% - - 100% 0 mhos 14 - None None - -
02/09/2018 17:04 Ice Warning 6.8F - 26F 32F 5 0% - - 100% 0 mhos 15 - None None - -
02/09/2018 16:57 Ice Warning 7.3F - 26F 32F 5 0% - - 100% 0 mhos 15 - None None - -
Date/Time
(MDT)
Sf
Temp Chem Water Layer Surface Precipitation
Sfc Pvt Sub Frz Factor Pct Dpth DpthThk IcePct Cond Salin FI Type Intens Accum Rate
02/09/2018 16:49 Ice Warning 7.9F - 26F 32F 5 0% - - 100% 0 mhos 16 - None None - -
02/09/2018 16:47 Ice Warning 8.1F - 26F 32F 5 0% - - 100% 0 mhos 16 - None None - -
02/09/2018 16:37 Ice Warning 8.8F - 26F 32F 5 0% - - 100% 0 mhos 18 - None None - -
02/09/2018 16:34 Ice Warning 9.1F - 26F 32F 5 0% - - 100% 0 mhos 18 - None None - -
02/09/2018 16:27 Ice Warning 9.5F - 26F 32F 5 0% - - 100% 0 mhos 19 - None None - -
02/09/2018 16:19 Ice Warning 10.0F - 26F 32F 5 0% - - 100% 0 mhos 20 - None None - -
02/09/2018 16:17 Ice Warning 10.2F - 26F 32F 5 0% - - 100% 0 mhos 20 - None None - -
02/09/2018 16:07 Ice Warning 11.1F - 26F 32F 5 0% - - 100% 0 mhos 21 - None None - -
02/09/2018 16:04 Ice Warning 11.3F - 26F 32F 5 0% - - 100% 0 mhos 21 - None None - -
02/09/2018 15:57 Ice Warning 11.7F - 26F 32F 5 0% - - 100% 0 mhos 22 - None None - -
02/09/2018 15:49 Ice Warning 12.2F - 26F 32F 5 0% - - 100% 0 mhos 19 - None None - -
02/09/2018 15:47 Ice Warning 12.4F - 26F 32F 5 0% - - 100% 0 mhos 19 - None None - -
02/09/2018 15:37 Ice Warning 12.9F - 26F 32F 5 0% - - 100% 0 mhos 20 - None None - -
02/09/2018 15:34 Ice Warning 12.9F - 26F 32F 5 0% - - 100% 0 mhos 21 - None None - -
02/09/2018 15:27 Ice Warning 13.5F - 26F 32F 5 0% - - 100% 0 mhos 21 - None None - -
Date/Time
(MDT)
Sf
Temp Chem Water Layer Surface Precipitation
Sfc Pvt Sub Frz Factor Pct Dpth DpthThk IcePct Cond Salin FI Type Intens Accum Rate
02/09/2018 15:19 Ice Warning 13.8F - 26F 32F 5 0% - - 100% 0 mhos 22 - None None - -
02/09/2018 15:17 Ice Warning 13.8F - 26F 32F 5 0% - - 100% 0 mhos 22 - None None - -
02/09/2018 15:06 Ice Warning 14.2F - 26F 32F 5 0% - - 100% 0 mhos 22 - None None - -
02/09/2018 15:04 Ice Warning 14.4F - 26F 32F 5 0% - - 100% 0 mhos 23 - None None - -
02/09/2018 14:56 Ice Warning 14.9F - 26F 32F 5 0% - - 100% 0 mhos 23 - None None - -
02/09/2018 14:49 Ice Warning 15.3F - 26F 32F 5 0% - - 100% 0 mhos 23 - None None - -
02/09/2018 14:46 Ice Warning 15.3F - 26F 32F 5 0% - - 100% 0 mhos 24 - None None - -
02/09/2018 14:36 Ice Warning 15.6F - 26F 32F 5 0% - - 100% 0 mhos 24 - None None - -
02/09/2018 14:34 Ice Warning 15.6F - 26F 32F 5 0% - - 100% 0 mhos 24 - None None - -
02/09/2018 14:26 Ice Warning 16.0F - 26F 32F 5 0% - - 100% 0 mhos 25 - None None - -
02/09/2018 14:19 Ice Warning 16.5F - 26F 32F 5 0% - - 100% 0 mhos 24 - None None - -
02/09/2018 14:16 Ice Warning 16.5F - 26F 32F 5 0% - - 100% 0 mhos 24 - None None - -
02/09/2018 14:06 Ice Warning 16.9F - 26F 32F 5 0% - - 100% 0 mhos 24 - None None - -
02/09/2018 14:04 Ice Warning 16.7F - 26F 32F 5 0% - - 100% 0 mhos 24 - None None - -
02/09/2018 13:56 Ice Warning 16.7F - 26F 32F 5 0% - - 100% 0 mhos 24 - None None - -
Date/Time
(MDT)
Sf
Temp Chem Water Layer Surface Precipitation
Sfc Pvt Sub Frz Factor Pct Dpth DpthThk IcePct Cond Salin FI Type Intens Accum Rate
02/09/2018 13:49 Ice Warning 16.5F - 26F 32F 5 0% - - 100% 0 mhos 24 - None None - -
02/09/2018 13:46 Ice Warning 16.3F - 26F 32F 5 0% - - 100% 0 mhos 24 - None None - -
02/09/2018 13:36 Ice Warning 17.6F - 26F 32F 5 0% - - 100% 0 mhos 24 - None None - -
02/09/2018 13:34 Ice Warning 18.0F - 26F 32F 5 0% - - 100% 0 mhos 24 - None None - -
02/09/2018 13:26 Ice Warning 18.3F - 26F 32F 5 0% - - 100% 0 mhos 24 - None None - -
02/09/2018 13:19 Ice Warning 18.0F - 26F 32F 5 0% - - 100% 0 mhos 24 - None None - -
02/09/2018 13:16 Ice Warning 18.3F - 26F 32F 5 0% - - 100% 0 mhos 24 - None None - -
02/09/2018 13:06 Ice Warning 18.0F - 26F 32F 5 0% - - 100% 0 mhos 23 - None None - -
02/09/2018 13:04 Ice Warning 18.0F - 26F 32F 5 0% - - 100% 0 mhos 23 - None None - -
02/09/2018 12:56 Ice Warning 18.1F - 26F 32F 5 0% - - 100% 0 mhos 24 - None None - -
02/09/2018 12:49 Ice Warning 18.3F - 26F 32F 5 0% - - 100% 0 mhos 25 - None None - -
02/09/2018 12:46 Ice Warning 18.3F - 26F 32F 5 0% - - 100% 0 mhos 25 - Yes - - -
02/09/2018 12:36 Ice Warning 18.9F - 26F 32F 5 0% - - 100% 0 mhos 26 - Yes - - -
02/09/2018 12:34 Ice Warning 19.0F - 26F 32F 5 0% - - 100% 0 mhos 26 - None None - -
02/09/2018 12:25 Ice Warning 19.0F - 26F 32F 5 0% - - 100% 0 mhos 26 - None None - -
Date/Time
(MDT)
Sf
Temp Chem Water Layer Surface Precipitation
Sfc Pvt Sub Frz Factor Pct Dpth DpthThk IcePct Cond Salin FI Type Intens Accum Rate
02/09/2018 12:19 Ice Warning 19.0F - 26F 32F 5 0% - - 100% 0 mhos 27 - None None - -
02/09/2018 12:15 Ice Warning 19.6F - 26F 32F 5 0% - - 100% 0 mhos 27 - Yes - - -
02/09/2018 12:05 Ice Warning 19.6F - 26F 32F 5 0% - - 100% 0 mhos 26 - Yes - - -
02/09/2018 12:04 Ice Warning 19.6F - 26F 32F 5 0% - - 100% 0 mhos 26 - Yes - - -
02/09/2018 11:55 Ice Warning 19.0F - 26F 32F 5 0% - - 100% 0 mhos 26 - Yes - - -
02/09/2018 11:49 Ice Warning 19.6F - 26F 32F 5 0% - - 100% 0 mhos 27 - Yes - - -
02/09/2018 11:45 Ice Warning 20.1F - 26F 32F 5 0% - - 100% 0 mhos 27 - None None - -
02/09/2018 11:35 Ice Warning 19.9F - 26F 32F 5 0% - - 100% 0 mhos 24 - None None - -
02/09/2018 11:34 Ice Warning 19.6F - 26F 32F 5 0% - - 100% 0 mhos 24 - None None - -
02/09/2018 11:25 Ice Warning 18.0F - 26F 32F 5 0% - - 100% 0 mhos 22 - Yes - - -
02/09/2018 11:19 Ice Warning 17.1F - 26F 32F 5 0% - - 100% 0 mhos 24 - None None - -
02/09/2018 11:15 Ice Warning 17.1F - 26F 32F 5 0% - - 100% 0 mhos 24 - None None - -
02/09/2018 11:05 Ice Warning 17.1F - 26F 32F 5 0% - - 100% 0 mhos 23 - None None - -
02/09/2018 11:04 Ice Warning 17.1F - 26F 32F 5 0% - - 100% 0 mhos 23 - None None - -
02/09/2018 10:55 Ice Warning 15.4F - 26F 32F 5 0% - - 100% 0 mhos 22 - None None - -
Date/Time
(MDT)
Sf
Temp Chem Water Layer Surface Precipitation
Sfc Pvt Sub Frz Factor Pct Dpth DpthThk IcePct Cond Salin FI Type Intens Accum Rate
02/09/2018 10:48 Ice Warning 14.5F - 26F 32F 5 0% - - 100% 0 mhos 23 - None None - -
02/09/2018 10:45 Ice Warning 14.7F - 26F 32F 5 0% - - 100% 0 mhos 23 - None None - -
02/09/2018 10:35 Ice Warning 14.2F - 26F 32F 5 0% - - 100% 0 mhos 22 - None None - -
02/09/2018 10:34 Ice Warning 14.2F - 26F 32F 5 0% - - 100% 0 mhos 22 - None None - -
02/09/2018 10:25 Ice Warning 13.5F - 26F 32F 5 0% - - 100% 0 mhos 21 - None None - -
02/09/2018 10:19 Ice Warning 13.1F - 26F 32F 5 0% - - 100% 0 mhos 20 - None None - -
02/09/2018 10:15 Ice Warning 12.9F - 26F 32F 5 0% - - 100% 0 mhos 20 - None None - -
02/09/2018 10:05 Ice Warning 12.2F - 26F 32F 5 0% - - 100% 0 mhos 22 - None None - -
02/09/2018 10:04 Ice Warning 12.0F - 26F 32F 5 0% - - 100% 0 mhos 22 - None None - -
02/09/2018 09:55 Ice Warning 10.9F - 26F 32F 5 0% - - 100% 0 mhos 21 - Yes - - -
02/09/2018 09:49 Ice Warning 10.8F - 26F 32F 5 0% - - 100% 0 mhos 21 - Yes - - -
02/09/2018 09:45 Ice Warning 11.1F - 26F 32F 5 0% - - 100% 0 mhos 21 - None None - -
02/09/2018 09:34 Ice Warning 12.2F - 26F 32F 5 0% - - 100% 0 mhos 19 - Yes - - -
02/09/2018 09:34 Ice Warning 12.2F - 26F 32F 5 0% - - 100% 0 mhos 19 - Yes - - -
02/09/2018 09:24 Ice Warning 12.0F - 26F 32F 5 0% - - 100% 0 mhos 20 - Yes - - -
Date/Time
(MDT)
Sf
Temp Chem Water Layer Surface Precipitation
Sfc Pvt Sub Frz Factor Pct Dpth DpthThk IcePct Cond Salin FI Type Intens Accum Rate
02/09/2018 09:19 Ice Warning 10.2F - 26F 32F 5 0% - - 100% 0 mhos 20 - Yes - - -
02/09/2018 09:14 Ice Warning 9.9F - 26F 32F 5 0% - - 100% 0 mhos 19 - Yes - - -
02/09/2018 09:04 Ice Warning 10.6F - 26F 32F 5 0% - - 100% 0 mhos 20 - Yes - - -
02/09/2018 09:04 Ice Warning 10.4F - 26F 32F 5 0% - - 100% 0 mhos 20 - Yes - - -
02/09/2018 08:54 Ice Warning 10.0F - 26F 32F 5 0% - - 100% 0 mhos 19 - Yes - - -
02/09/2018 08:49 Ice Warning 9.7F - 26F 32F 5 0% - - 100% 0 mhos 18 - Yes - - -
02/09/2018 08:44 Ice Warning 9.5F - 26F 32F 5 0% - - 100% 0 mhos 18 - Yes - - -
02/09/2018 08:34 Ice Warning 9.5F - 26F 32F 5 0% - - 100% 0 mhos 18 - Yes - - -
02/09/2018 08:34 Ice Warning 9.5F - 26F 32F 5 0% - - 100% 0 mhos 18 - Yes - - -
02/09/2018 08:24 Ice Warning 9.3F - 26F 32F 5 0% - - 100% 0 mhos 17 - None None - -
02/09/2018 08:19 Ice Warning 8.6F - 26F 32F 5 0% - - 100% 0 mhos 17 - None None - -
02/09/2018 08:14 Ice Warning 8.2F - 26F 32F 5 0% - - 100% 0 mhos 16 - None None - -
02/09/2018 08:04 Ice Warning 7.5F - 26F 32F 5 0% - - 100% 0 mhos 16 - Yes - - -
02/09/2018 08:04 Ice Warning 7.5F - 26F 32F 5 0% - - 100% 0 mhos 16 - Yes - - -
02/09/2018 07:54 Ice Warning 7.3F - 26F 32F 5 0% - - 100% 0 mhos 15 - None None - -
Date/Time
(MDT)
Sf
Temp Chem Water Layer Surface Precipitation
Sfc Pvt Sub Frz Factor Pct Dpth DpthThk IcePct Cond Salin FI Type Intens Accum Rate
02/09/2018 07:49 Ice Warning 7.2F - 26F 32F 5 0% - - 100% 0 mhos 15 - None None - -
02/09/2018 07:44 Ice Warning 7.0F - 26F 32F 5 0% - - 100% 0 mhos 15 - None None - -
02/09/2018 07:34 Ice Warning 6.8F - 26F 32F 5 0% - - 100% 0 mhos 15 - None None - -
02/09/2018 07:34 Ice Warning 6.8F - 26F 32F 5 0% - - 100% 0 mhos 15 - None None - -
02/09/2018 07:24 Ice Warning 6.4F - 26F 32F 5 0% - - 100% 0 mhos 15 - None None - -
02/09/2018 07:19 Ice Warning 6.4F - 26F 32F 5 0% - - 100% 0 mhos 15 - None None - -
02/09/2018 07:14 Ice Warning 6.4F - 26F 32F 5 0% - - 100% 0 mhos 15 - None None - -
02/09/2018 07:04 Ice Warning 6.4F - 26F 32F 5 0% - - 100% 0 mhos 15 - None None - -
02/09/2018 07:03 Ice Warning 6.4F - 26F 32F 5 0% - - 100% 0 mhos 15 - None None - -
02/09/2018 06:53 Ice Warning 6.4F - 26F 32F 5 0% - - 100% 0 mhos 15 - None None - -
02/09/2018 06:49 Ice Warning 6.4F - 26F 32F 5 0% - - 100% 0 mhos 15 - None None - -
02/09/2018 06:43 Ice Warning 6.6F - 26F 32F 5 0% - - 100% 0 mhos 15 - None None - -
02/09/2018 06:34 Ice Warning 6.6F - 26F 32F 5 0% - - 100% 0 mhos 15 - None None - -
02/09/2018 06:33 Ice Warning 6.8F - 26F 32F 5 0% - - 100% 0 mhos 15 - None None - -
02/09/2018 06:23 Ice Warning 7.3F - 26F 32F 5 0% - - 100% 0 mhos 15 - None None - -
Date/Time
(MDT)
Sf
Temp Chem Water Layer Surface Precipitation
Sfc Pvt Sub Frz Factor Pct Dpth DpthThk IcePct Cond Salin FI Type Intens Accum Rate
02/09/2018 06:19 Ice Warning 7.7F - 26F 32F 5 0% - - 100% 0 mhos 16 - None None - -
02/09/2018 06:13 Ice Warning 7.5F - 26F 32F 5 0% - - 100% 0 mhos 16 - None None - -
02/09/2018 06:04 Ice Warning 7.5F - 26F 32F 5 0% - - 100% 0 mhos 16 - None None - -
02/09/2018 06:03 Ice Warning 7.7F - 26F 32F 5 0% - - 100% 0 mhos 16 - None None - -
02/09/2018 05:53 Ice Warning 7.3F - 26F 32F 5 0% - - 100% 0 mhos 16 - None None - -
02/09/2018 05:49 Ice Warning 7.5F - 26F 32F 5 0% - - 100% 0 mhos 15 - None None - -
02/09/2018 05:43 Ice Warning 7.3F - 26F 32F 5 0% - - 100% 0 mhos 15 - None None - -
02/09/2018 05:34 Ice Warning 7.0F - 26F 32F 5 0% - - 100% 0 mhos 15 - None None - -
02/09/2018 05:33 Ice Warning 7.2F - 26F 32F 5 0% - - 100% 0 mhos 15 - None None - -
02/09/2018 05:23 Ice Warning 7.0F - 26F 32F 5 0% - - 100% 0 mhos 15 - None None - -
02/09/2018 05:19 Ice Warning 6.8F - 26F 32F 5 0% - - 100% 0 mhos 15 - None None - -
02/09/2018 05:13 Ice Warning 6.8F - 27F 32F 5 0% - - 100% 0 mhos 14 - None None - -
02/09/2018 05:04 Ice Warning 6.8F - 26F 32F 5 0% - - 100% 0 mhos 14 - None None - -
02/09/2018 05:03 Ice Warning 6.6F - 26F 32F 5 0% - - 100% 0 mhos 14 - None None - -
02/09/2018 04:53 Ice Warning 6.4F - 27F 32F 5 0% - - 100% 0 mhos 14 - None None - -
Date/Time
(MDT)
Sf
Temp Chem Water Layer Surface Precipitation
Sfc Pvt Sub Frz Factor Pct Dpth DpthThk IcePct Cond Salin FI Type Intens Accum Rate
02/09/2018 04:49 Ice Warning 6.4F - 27F 32F 5 0% - - 100% 0 mhos 14 - None None - -
02/09/2018 04:43 Ice Warning 6.3F - 26F 32F 5 0% - - 100% 0 mhos 14 - None None - -
02/09/2018 04:34 Ice Warning 6.1F - 27F 32F 5 0% - - 100% 0 mhos 13 - None None - -
02/09/2018 04:33 Ice Warning 6.3F - 27F 32F 5 0% - - 100% 0 mhos 13 - None None - -
02/09/2018 04:22 Ice Warning 5.7F - 27F 32F 5 0% - - 100% 0 mhos 13 - None None - -
02/09/2018 04:19 Ice Warning 5.7F - 27F 32F 5 0% - - 100% 0 mhos 13 - None None - -
02/09/2018 04:12 Ice Warning 5.5F - 27F 32F 5 0% - - 100% 0 mhos 13 - None None - -
02/09/2018 04:04 Ice Warning 5.5F - 27F 32F 5 0% - - 100% 0 mhos 13 - None None - -
02/09/2018 04:02 Ice Warning 5.4F - 27F 32F 5 0% - - 100% 0 mhos 13 - None None - -
02/09/2018 03:52 Ice Warning 5.2F - 27F 32F 5 0% - - 100% 0 mhos 12 - None None - -
02/09/2018 03:49 Ice Warning 5.2F - 27F 32F 5 0% - - 100% 0 mhos 12 - None None - -
02/09/2018 03:42 Ice Warning 5.2F - 27F 32F 5 0% - - 100% 0 mhos 10 - None None - -
02/09/2018 03:34 Ice Warning 5.0F - 27F 32F 5 0% - - 100% 0 mhos 10 - None None - -
02/09/2018 03:32 Ice Warning 5.0F - 27F 32F 5 0% - - 100% 0 mhos 10 - None None - -
02/09/2018 03:22 Ice Warning 4.8F - 27F 32F 5 0% - - 100% 0 mhos 10 - None None - -
Date/Time
(MDT)
Sf
Temp Chem Water Layer Surface Precipitation
Sfc Pvt Sub Frz Factor Pct Dpth DpthThk IcePct Cond Salin FI Type Intens Accum Rate
02/09/2018 03:19 Ice Warning 4.8F - 27F 32F 5 0% - - 100% 0 mhos 10 - None None - -
02/09/2018 03:12 Ice Warning 4.8F - 27F 32F 5 0% - - 100% 0 mhos 10 - None None - -
02/09/2018 03:04 Ice Warning 4.6F - 27F 32F 5 0% - - 100% 0 mhos 10 - None None - -
02/09/2018 03:02 Ice Warning 4.6F - 27F 32F 5 0% - - 100% 0 mhos 10 - None None - -
02/09/2018 02:52 Ice Warning 4.3F - 27F 32F 5 0% - - 100% 0 mhos 9 - None None - -
02/09/2018 02:49 Ice Warning 4.3F - 27F 32F 5 0% - - 100% 0 mhos 9 - None None - -
02/09/2018 02:42 Ice Warning 3.7F - 27F 32F 5 0% - - 100% 0 mhos 9 - None None - -
02/09/2018 02:34 Ice Warning 3.7F - 27F 32F 5 0% - - 100% 0 mhos 9 - None None - -
02/09/2018 02:32 Ice Warning 3.7F - 27F 32F 5 0% - - 100% 0 mhos 9 - None None - -
02/09/2018 02:22 Ice Warning 3.4F - 27F 32F 5 0% - - 100% 0 mhos 8 - None None - -
02/09/2018 02:19 Ice Warning 3.4F - 27F 32F 5 0% - - 100% 0 mhos 7 - None None - -
02/09/2018 02:12 Ice Warning 3.2F - 27F 32F 5 0% - - 100% 0 mhos 7 - None None - -
02/09/2018 02:04 Ice Warning 2.5F - 27F 32F 5 0% - - 100% 0 mhos 7 - None None - -
02/09/2018 02:02 Ice Warning 2.5F - 27F 32F 5 0% - - 100% 0 mhos 7 - None None - -
02/09/2018 01:52 Ice Warning 2.3F - 27F 32F 5 0% - - 100% 0 mhos 7 - None None - -
Date/Time
(MDT)
Sf
Temp Chem Water Layer Surface Precipitation
Sfc Pvt Sub Frz Factor Pct Dpth DpthThk IcePct Cond Salin FI Type Intens Accum Rate
02/09/2018 01:49 Ice Warning 2.5F - 27F 32F 5 0% - - 100% 0 mhos 7 - None None - -
02/09/2018 01:41 Ice Warning 2.7F - 27F 32F 5 0% - - 100% 0 mhos 7 - None None - -
02/09/2018 01:34 Ice Warning 3.0F - 27F 32F 5 0% - - 100% 0 mhos 9 - None None - -
02/09/2018 01:31 Ice Warning 3.2F - 27F 32F 5 0% - - 100% 0 mhos 9 - None None - -
02/09/2018 01:21 Ice Warning 2.8F - 27F 32F 5 0% - - 100% 0 mhos 9 - None None - -
02/09/2018 01:19 Ice Warning 2.8F - 27F 32F 5 0% - - 100% 0 mhos 9 - None None - -
02/09/2018 01:11 Ice Warning 3.2F - 27F 32F 5 0% - - 100% 0 mhos 9 - None None - -
02/09/2018 01:04 Ice Warning 3.0F - 27F 32F 5 0% - - 100% 0 mhos 9 - None None - -
02/09/2018 01:01 Ice Warning 3.2F - 27F 32F 5 0% - - 100% 0 mhos 9 - None None - -
02/09/2018 00:51 Ice Warning 3.4F - 27F 32F 5 0% - - 100% 0 mhos 10 - None None - -
02/09/2018 00:49 Ice Warning 3.2F - 27F 32F 5 0% - - 100% 0 mhos 10 - None None - -
02/09/2018 00:41 Ice Warning 3.2F - 27F 32F 5 0% - - 100% 0 mhos 10 - None None - -
02/09/2018 00:34 Ice Warning 3.6F - 27F 32F 5 0% - - 100% 0 mhos 12 - None None - -
02/09/2018 00:31 Ice Warning 3.7F - 27F 32F 5 0% - - 100% 0 mhos 12 - None None - -
02/09/2018 00:21 Ice Warning 3.9F - 27F 32F 5 0% - - 100% 0 mhos 13 - None None - -
Date/Time
(MDT)
Sf
Temp Chem Water Layer Surface Precipitation
Sfc Pvt Sub Frz Factor Pct Dpth DpthThk IcePct Cond Salin FI Type Intens Accum Rate
02/09/2018 00:19 Ice Warning 4.1F - 27F 32F 5 0% - - 100% 0 mhos 13 - None None - -
02/09/2018 00:11 Ice Warning 4.6F - 27F 32F 5 0% - - 100% 0 mhos 14 - None None - -
02/09/2018 00:04 Ice Warning 5.2F - 27F 32F 5 0% - - 100% 0 mhos 15 - None None - -
02/09/2018 00:01 Ice Warning 5.4F - 27F 32F 5 0% - - 100% 0 mhos 15 - None None - -
02/08/2018 23:51 Ice Warning 6.1F - 27F 32F 5 0% - - 100% 0 mhos 16 - None None - -
02/08/2018 23:49 Ice Warning 6.3F - 27F 32F 5 0% - - 100% 0 mhos 16 - None None - -
02/08/2018 23:41 Ice Warning 6.8F - 27F 32F 5 0% - - 100% 0 mhos 18 - None None - -
02/08/2018 23:34 Ice Warning 7.3F - 27F 32F 5 0% - - 100% 0 mhos 18 - None None - -
02/08/2018 23:31 Ice Warning 7.3F - 27F 32F 5 0% - - 100% 0 mhos 18 - None None - -
02/08/2018 23:21 Ice Warning 7.7F - 27F 32F 5 0% - - 100% 0 mhos 18 - None None - -
02/08/2018 23:19 Ice Warning 7.7F - 27F 32F 5 0% - - 100% 0 mhos 18 - None None - -
02/08/2018 23:11 Ice Warning 8.1F - 27F 32F 5 0% - - 100% 0 mhos 18 - None None - -
02/08/2018 23:04 Ice Warning 8.1F - 27F 32F 5 0% - - 100% 0 mhos 19 - None None - -
02/08/2018 23:00 Ice Warning 8.1F - 27F 32F 5 0% - - 100% 0 mhos 19 - None None - -
02/08/2018 22:50 Ice Warning 8.2F - 27F 32F 5 0% - - 100% 0 mhos 18 - None None - -
Date/Time
(MDT)
Sf
Temp Chem Water Layer Surface Precipitation
Sfc Pvt Sub Frz Factor Pct Dpth DpthThk IcePct Cond Salin FI Type Intens Accum Rate
02/08/2018 22:49 Ice Warning 8.2F - 27F 32F 5 0% - - 100% 0 mhos 18 - None None - -
02/08/2018 22:40 Ice Warning 8.2F - 27F 32F 5 0% - - 100% 0 mhos 18 - None None - -
02/08/2018 22:34 Ice Warning 8.2F - 27F 32F 5 0% - - 100% 0 mhos 18 - None None - -
02/08/2018 22:30 Ice Warning 8.2F - 27F 32F 5 0% - - 100% 0 mhos 18 - None None - -
02/08/2018 22:20 Ice Warning 8.2F - 27F 32F 5 0% - - 100% 0 mhos 18 - None None - -
02/08/2018 22:19 Ice Warning 8.2F - 27F 32F 5 0% - - 100% 0 mhos 18 - None None - -
02/08/2018 22:10 Ice Warning 8.4F - 27F 32F 5 0% - - 100% 0 mhos 19 - None None - -
02/08/2018 22:04 Ice Warning 8.4F - 27F 32F 5 0% - - 100% 0 mhos 19 - None None - -
02/08/2018 22:00 Ice Warning 8.4F - 27F 32F 5 0% - - 100% 0 mhos 19 - None None - -
02/08/2018 21:50 Ice Warning 8.6F - 27F 32F 5 0% - - 100% 0 mhos 19 - None None - -
02/08/2018 21:49 Ice Warning 8.4F - 27F 32F 5 0% - - 100% 0 mhos 19 - None None - -
02/08/2018 21:40 Ice Warning 8.6F - 27F 32F 5 0% - - 100% 0 mhos 19 - None None - -
02/08/2018 21:34 Ice Warning 8.8F - 27F 32F 5 0% - - 100% 0 mhos 18 - None None - -
02/08/2018 21:30 Ice Warning 8.6F - 27F 32F 5 0% - - 100% 0 mhos 19 - Yes - - -
02/08/2018 21:20 Ice Warning 8.6F - 27F 32F 5 0% - - 100% 0 mhos 18 - None None - -
Date/Time
(MDT)
Sf
Temp Chem Water Layer Surface Precipitation
Sfc Pvt Sub Frz Factor Pct Dpth DpthThk IcePct Cond Salin FI Type Intens Accum Rate
02/08/2018 21:19 Ice Warning 8.6F - 27F 32F 5 0% - - 100% 0 mhos 18 - None None - -
02/08/2018 21:10 Ice Warning 8.4F - 27F 32F 5 0% - - 100% 0 mhos 18 - None None - -
02/08/2018 21:04 Ice Warning 8.4F - 27F 32F 5 0% - - 100% 0 mhos 18 - None None - -
02/08/2018 21:00 Ice Warning 8.6F - 27F 32F 5 0% - - 100% 0 mhos 18 - None None - -
02/08/2018 20:50 Ice Warning 8.6F - 27F 32F 5 0% - - 100% 0 mhos 18 - None None - -
02/08/2018 20:49 Ice Warning 8.6F - 27F 32F 5 0% - - 100% 0 mhos 18 - None None - -
02/08/2018 20:40 Ice Warning 8.6F - 27F 32F 5 0% - - 100% 0 mhos 18 - None None - -
02/08/2018 20:34 Ice Warning 8.8F - 27F 32F 5 0% - - 100% 0 mhos 18 - Yes - - -
02/08/2018 20:30 Ice Warning 8.6F - 27F 32F 5 0% - - 100% 0 mhos 18 - None None - -
02/08/2018 20:19 Ice Warning 8.4F - 27F 32F 5 0% - - 100% 0 mhos 18 - None None - -
02/08/2018 20:19 Ice Warning 8.4F - 27F 32F 5 0% - - 100% 0 mhos 18 - None None - -
02/08/2018 20:09 Ice Warning 8.8F - 27F 32F 5 0% - - 100% 0 mhos 18 - Yes - - -
02/08/2018 20:04 Ice Warning 8.6F - 27F 32F 5 0% - - 100% 0 mhos 18 - None None - -
02/08/2018 19:59 Ice Warning 8.6F - 27F 32F 5 0% - - 100% 0 mhos 18 - None None - -
02/08/2018 19:49 Ice Warning 8.6F - 27F 32F 5 0% - - 100% 0 mhos 18 - Yes - - -
Date/Time
(MDT)
Sf
Temp Chem Water Layer Surface Precipitation
Sfc Pvt Sub Frz Factor Pct Dpth DpthThk IcePct Cond Salin FI Type Intens Accum Rate
02/08/2018 19:49 Ice Warning 8.6F - 27F 32F 5 0% - - 100% 0 mhos 18 - Yes - - -
02/08/2018 19:39 Ice Warning 9.0F - 27F 32F 5 0% - - 100% 0 mhos 18 - Yes - - -
02/08/2018 19:34 Ice Warning 8.8F - 27F 32F 5 0% - - 100% 0 mhos 18 - Yes - - -
02/08/2018 19:29 Ice Warning 8.8F - 27F 32F 5 0% - - 100% 0 mhos 18 - None None - -
02/08/2018 19:19 Ice Warning 8.8F - 27F 32F 5 0% - - 100% 0 mhos 18 - None None - -
02/08/2018 19:19 Ice Warning 8.8F - 27F 32F 5 0% - - 100% 0 mhos 18 - None None - -
02/08/2018 19:09 Ice Warning 9.1F - 27F 32F 5 0% - - 100% 0 mhos 18 - None None - -
02/08/2018 19:04 Ice Warning 9.1F - 27F 32F 5 0% - - 100% 0 mhos 18 - None None - -
02/08/2018 18:59 Ice Warning 9.1F - 27F 32F 5 0% - - 100% 0 mhos 17 - None None - -
02/08/2018 18:49 Ice Warning 9.1F - 27F 32F 5 0% - - 100% 0 mhos 17 - None None - -
02/08/2018 18:49 Ice Warning 9.1F - 27F 32F 5 0% - - 100% 0 mhos 17 - None None - -
02/08/2018 18:39 Ice Warning 9.3F - 27F 32F 5 0% - - 100% 0 mhos 18 - None None - -
02/08/2018 18:34 Ice Warning 9.3F - 27F 32F 5 0% - - 100% 0 mhos 18 - None None - -
02/08/2018 18:29 Ice Warning 9.5F - 27F 32F 5 0% - - 100% 0 mhos 18 - None None - -
Change End Date:

Copyright © 1998-2015 Vaisala, Inc.
All Rights Reserved
Send comments about the data to:
SCAN Web ® is a registered trademark of Vaisala, Inc.
SCAN Web Version 6.0